Погода в Томбукту

Мали     16°46′37″N   3°00′23″W
темп.,
°C
ветер,
м/с
пор.,
м/с
влажн.,
%
обл.,
%
осадки,
мм/ч
давл.,
гПа
погр.,
м
25 января, пн
пн2500:00+20св4570 0.0 101523
03:00+18всв4580 0.0 101426
06:00+16всв45917 0.0 101523
09:00+21всв57783 0.0 1016296
12:00+29в56482 0.0 1015899
15:00+32всв44410 0.0 10121701
18:00+26ссв45543 0.0 101324
21:00+23св46674 0.0 101525
26 января, вт
вт2600:00+21св46658 0.0 101525
03:00+19св4570 0.0 101423
06:00+17св4680 0.0 101532
09:00+22всв5760 0.0 1017288
12:00+30в6740 0.0 1015950
15:00+32всв6630 0.0 10121813
18:00+26св4640 0.0 101325
21:00+22св4560 0.0 101523
27 января, ср
ср2700:00+20св4570 0.0 101423
03:00+18ссв5680 0.0 101333
06:00+17св56100 0.0 101446
09:00+22всв6870 0.0 1015300
12:00+31всв7840 0.0 10141216
15:00+32всв7740 0.0 10111996
18:00+26св4560 0.0 101124
21:00+23св4580 0.0 101423
28 января, чт
чт2800:00+20ссв45110 0.0 101425
03:00+19ссв56140 0.0 101260
06:00+17св56160 0.0 101371
09:00+22всв68100 0.0 1015310
12:00+31всв7750 0.0 10141055
15:00+33всв6750 0.0 10111979
18:00+27св4570 0.0 101124
21:00+24св5670 0.0 101426
29 января, пт
пт2900:00+22св4590 0.0 101424
03:00+19всв5680 0.0 101359
06:00+18в68114 0.0 101496
09:00+23в9141339 0.0 1016511
12:00+30в910920 0.0 10141033
15:00+33в6760 0.0 10122076
18:00+28всв5680 0.0 101227
21:00+24св56110 0.0 101547